| time (UTC) | temp C | wind direction | speed KPH | gust KPH | rain 1hr cm | rain 24hr cm | rain mn cm | humidity % | barometer mb |
| 20260906072515 | 25 | 64 | 1.6 | 4.8 | 0.00 | 0.00 | 0.00 | 41 | 1022.9 |
| 20260906071515 | 24 | 43 | 1.6 | 3.2 | 0.00 | 0.00 | 0.00 | 42 | 1022.8 |
| 20260906070515 | 24 | 54 | 3.2 | 6.4 | 0.00 | 0.00 | 0.00 | 41 | 1022.8 |
| 20260906065515 | 24 | 72 | 3.2 | 8.0 | 0.00 | 0.00 | 0.00 | 41 | 1022.7 |
| 20260906064555 | 24 | 72 | 4.8 | 8.0 | 0.00 | 0.00 | 0.00 | 41 | 1022.7 |
| 20260906063515 | 24 | 46 | 3.2 | 6.4 | 0.00 | 0.00 | 0.00 | 41 | 1022.8 |
| 20260906062515 | 24 | 59 | 3.2 | 4.8 | 0.00 | 0.00 | 0.00 | 41 | 1022.6 |
| 20260906061516 | 24 | 61 | 0.0 | 4.8 | 0.00 | 0.00 | 0.00 | 41 | 1022.7 |
| 20260906060515 | 24 | 0.0 | 0.0 | 0.00 | 0.00 | 0.00 | 41 | 1022.7 | |
| 20260906055515 | 24 | 0.0 | 0.0 | 0.00 | 0.00 | 0.00 | 40 | 1022.5 | |
| 20260906054515 | 25 | 60 | 0.0 | 6.4 | 0.00 | 0.00 | 0.00 | 40 | 1022.6 |
| 20260906053515 | 25 | 49 | 0.0 | 3.2 | 0.00 | 0.00 | 0.00 | 39 | 1022.3 |
| 20260906052515 | 25 | 42 | 3.2 | 8.0 | 0.00 | 0.00 | 0.00 | 38 | 1022.2 |
| 20260906051515 | 25 | 278 | 1.6 | 3.2 | 0.00 | 0.00 | 0.00 | 38 | 1022.2 |
| 20260906050515 | 25 | 0.0 | 0.0 | 0.00 | 0.00 | 0.00 | 37 | 1022.3 | |
| 20260906045515 | 25 | 278 | 0.0 | 3.2 | 0.00 | 0.00 | 0.00 | 37 | 1022.4 |
| 20260906044555 | 26 | 277 | 1.6 | 3.2 | 0.00 | 0.00 | 0.00 | 36 | 1022.5 |
| 20260906043516 | 26 | 277 | 0.0 | 6.4 | 0.00 | 0.00 | 0.00 | 35 | 1022.7 |
| 20260906042515 | 26 | 244 | 3.2 | 12.9 | 0.00 | 0.00 | 0.00 | 35 | 1022.6 |
| 20260906041516 | 26 | 311 | 6.4 | 16.1 | 0.00 | 0.00 | 0.00 | 35 | 1022.9 |
| 20260906040515 | 26 | 89 | 4.8 | 11.3 | 0.00 | 0.00 | 0.00 | 34 | 1021.9 |
| 20260906035515 | 26 | 115 | 1.6 | 8.0 | 0.00 | 0.00 | 0.00 | 35 | 1022.6 |
| 20260906034515 | 26 | 0.0 | 0.0 | 0.00 | 0.00 | 0.00 | 36 | 1022.8 | |
| 20260906033515 | 26 | 0.0 | 0.0 | 0.00 | 0.00 | 0.00 | 36 | 1022.8 | |
| 20260906032515 | 26 | 257 | 0.0 | 3.2 | 0.00 | 0.00 | 0.00 | 35 | 1022.8 |
| 20260906031515 | 26 | 103 | 1.6 | 1.6 | 0.00 | 0.00 | 0.00 | 34 | 1022.9 |
| 20260906030515 | 27 | 103 | 1.6 | 3.2 | 0.00 | 0.00 | 0.00 | 33 | 1023.0 |
| 20260906025515 | 27 | 105 | 1.6 | 4.8 | 0.00 | 0.00 | 0.00 | 32 | 1022.7 |
| 20260906024515 | 27 | 80 | 1.6 | 4.8 | 0.00 | 0.00 | 0.00 | 32 | 1022.6 |
| 20260906023515 | 27 | 142 | 3.2 | 9.7 | 0.00 | 0.00 | 0.00 | 32 | 1022.8 |
| 20260906022515 | 27 | 110 | 0.0 | 8.0 | 0.00 | 0.00 | 0.00 | 32 | 1022.8 |
| 20260906021515 | 27 | 116 | 3.2 | 9.7 | 0.00 | 0.00 | 0.00 | 32 | 1022.8 |
| 20260906020516 | 27 | 120 | 3.2 | 9.7 | 0.00 | 0.00 | 0.00 | 33 | 1022.9 |
| 20260906015555 | 27 | 131 | 4.8 | 11.3 | 0.00 | 0.00 | 0.00 | 34 | 1022.7 |
| 20260906014515 | 27 | 116 | 6.4 | 14.5 | 0.00 | 0.00 | 0.00 | 35 | 1022.7 |
| 20260906013515 | 27 | 127 | 1.6 | 8.0 | 0.00 | 0.00 | 0.00 | 36 | 1022.8 |
| 20260906012515 | 27 | 76 | 1.6 | 8.0 | 0.00 | 0.00 | 0.00 | 36 | 1022.9 |
| 20260906011515 | 27 | 129 | 1.6 | 8.0 | 0.00 | 0.00 | 0.00 | 36 | 1022.9 |
| 20260906010515 | 27 | 111 | 3.2 | 8.0 | 0.00 | 0.00 | 0.00 | 36 | 1023.1 |
| 20260906005515 | 26 | 77 | 4.8 | 12.9 | 0.00 | 0.00 | 0.00 | 37 | 1023.0 |
| 20260906004555 | 26 | 319 | 1.6 | 3.2 | 0.00 | 0.00 | 0.00 | 37 | 1023.2 |
| 20260906003515 | 26 | 49 | 1.6 | 6.4 | 0.00 | 0.00 | 0.00 | 38 | 1023.0 |
| 20260906002516 | 26 | 51 | 4.8 | 8.0 | 0.00 | 0.00 | 0.00 | 37 | 1022.8 |
| 20260906001516 | 26 | 91 | 6.4 | 14.5 | 0.00 | 0.00 | 0.00 | 37 | 1022.7 |
| 20260906000515 | 26 | 65 | 4.8 | 11.3 | 0.00 | 0.00 | 0.00 | 38 | 1022.7 |
| 20260905235517 | 26 | 61 | 6.4 | 14.5 | 0.00 | 0.00 | 0.00 | 37 | 1022.8 |
| 20260905234517 | 26 | 58 | 6.4 | 11.3 | 0.00 | 0.00 | 0.00 | 37 | 1022.7 |
| 20260905233517 | 26 | 61 | 4.8 | 9.7 | 0.00 | 0.00 | 0.00 | 37 | 1022.9 |
| 20260905232517 | 26 | 51 | 4.8 | 9.7 | 0.00 | 0.00 | 0.00 | 37 | 1022.9 |
| 20260905231515 | 27 | 84 | 3.2 | 6.4 | 0.00 | 0.00 | 0.00 | 36 | 1023.0 |
| 20260905230517 | 27 | 114 | 1.6 | 9.7 | 0.00 | 0.00 | 0.00 | 36 | 1023.0 |
| 20260905225517 | 27 | 76 | 3.2 | 8.0 | 0.00 | 0.00 | 0.00 | 37 | 1022.8 |
| 20260905224517 | 27 | 0.0 | 0.0 | 0.00 | 0.00 | 0.00 | 39 | 1022.6 | |
| 20260905223517 | 27 | 0.0 | 0.0 | 0.00 | 0.00 | 0.00 | 40 | 1022.7 | |
| 20260905222517 | 27 | 0.0 | 0.0 | 0.00 | 0.00 | 0.00 | 39 | 1022.7 | |
| 20260905221517 | 27 | 0.0 | 0.0 | 0.00 | 0.00 | 0.00 | 39 | 1022.7 | |
| 20260905220617 | 27 | 0.0 | 0.0 | 0.00 | 0.00 | 0.00 | 38 | 1022.7 | |
| 20260905215517 | 27 | 0.0 | 1.6 | 0.00 | 0.00 | 0.00 | 38 | 1022.8 | |
| 20260905214517 | 27 | 0.0 | 0.0 | 0.00 | 0.00 | 0.00 | 38 | 1022.5 | |
| 20260905213517 | 27 | 0.0 | 1.6 | 0.00 | 0.00 | 0.00 | 38 | 1022.4 | |
| 20260905212517 | 27 | 271 | 0.0 | 1.6 | 0.00 | 0.00 | 0.00 | 38 | 1022.5 |
| 20260905211517 | 27 | 0.0 | 0.0 | 0.00 | 0.00 | 0.00 | 37 | 1022.3 | |
| 20260905210515 | 28 | 0.0 | 0.0 | 0.00 | 0.00 | 0.00 | 37 | 1022.4 | |
| 20260905205517 | 28 | 262 | 0.0 | 1.6 | 0.00 | 0.00 | 0.00 | 35 | 1022.3 |
| 20260905204515 | 28 | 0.0 | 3.2 | 0.00 | 0.00 | 0.00 | 35 | 1022.2 | |
| 20260905203515 | 28 | 262 | 1.6 | 3.2 | 0.00 | 0.00 | 0.00 | 35 | 1022.2 |
| 20260905202515 | 28 | 262 | 1.6 | 3.2 | 0.00 | 0.00 | 0.00 | 35 | 1022.2 |
| 20260905201515 | 28 | 262 | 1.6 | 4.8 | 0.00 | 0.00 | 0.00 | 34 | 1022.2 |
| 20260905200515 | 28 | 270 | 1.6 | 4.8 | 0.00 | 0.00 | 0.00 | 34 | 1022.1 |
| 20260905195515 | 28 | 264 | 1.6 | 4.8 | 0.00 | 0.00 | 0.00 | 34 | 1021.9 |
| 20260905194615 | 29 | 245 | 3.2 | 6.4 | 0.00 | 0.00 | 0.00 | 33 | 1021.7 |
| 20260905193515 | 29 | 267 | 3.2 | 8.0 | 0.00 | 0.00 | 0.00 | 33 | 1021.6 |
| 20260905192515 | 29 | 258 | 3.2 | 8.0 | 0.00 | 0.00 | 0.00 | 33 | 1021.5 |
| 20260905191555 | 30 | 264 | 3.2 | 9.7 | 0.00 | 0.00 | 0.00 | 32 | 1021.4 |
| 20260905190515 | 30 | 261 | 3.2 | 8.0 | 0.00 | 0.00 | 0.00 | 31 | 1021.2 |
| 20260905185515 | 30 | 271 | 3.2 | 8.0 | 0.00 | 0.00 | 0.00 | 31 | 1021.2 |
| 20260905184515 | 30 | 267 | 3.2 | 11.3 | 0.00 | 0.00 | 0.00 | 30 | 1021.2 |
| 20260905183515 | 30 | 269 | 4.8 | 11.3 | 0.00 | 0.00 | 0.00 | 30 | 1021.2 |
| 20260905182515 | 31 | 267 | 8.0 | 14.5 | 0.00 | 0.00 | 0.00 | 29 | 1021.1 |
| 20260905181515 | 31 | 268 | 4.8 | 11.3 | 0.00 | 0.00 | 0.00 | 29 | 1021.0 |
| 20260905180515 | 31 | 266 | 4.8 | 11.3 | 0.00 | 0.00 | 0.00 | 28 | 1021.1 |
| 20260905175515 | 31 | 265 | 6.4 | 14.5 | 0.00 | 0.00 | 0.00 | 28 | 1021.1 |
| 20260905174515 | 31 | 271 | 8.0 | 14.5 | 0.00 | 0.00 | 0.00 | 27 | 1021.0 |
| 20260905173515 | 32 | 271 | 8.0 | 12.9 | 0.00 | 0.00 | 0.00 | 27 | 1020.9 |
| 20260905172515 | 32 | 269 | 6.4 | 12.9 | 0.00 | 0.00 | 0.00 | 26 | 1021.0 |
| 20260905171515 | 32 | 266 | 8.0 | 14.5 | 0.00 | 0.00 | 0.00 | 26 | 1021.1 |
| 20260905170515 | 32 | 267 | 8.0 | 14.5 | 0.00 | 0.00 | 0.00 | 26 | 1021.1 |
| 20260905165515 | 32 | 283 | 4.8 | 16.1 | 0.00 | 0.00 | 0.00 | 26 | 1021.0 |
| 20260905164515 | 32 | 273 | 8.0 | 14.5 | 0.00 | 0.00 | 0.00 | 26 | 1021.1 |
| 20260905163515 | 32 | 279 | 6.4 | 14.5 | 0.00 | 0.00 | 0.00 | 25 | 1021.0 |
| 20260905162515 | 33 | 273 | 8.0 | 16.1 | 0.00 | 0.00 | 0.00 | 25 | 1021.1 |
| 20260905161515 | 33 | 274 | 8.0 | 17.7 | 0.00 | 0.00 | 0.00 | 25 | 1021.1 |
| 20260905160555 | 33 | 276 | 8.0 | 19.3 | 0.00 | 0.00 | 0.00 | 24 | 1021.3 |
| 20260905155515 | 33 | 278 | 4.8 | 12.9 | 0.00 | 0.00 | 0.00 | 24 | 1021.2 |
| 20260905154515 | 33 | 279 | 9.7 | 19.3 | 0.00 | 0.00 | 0.00 | 23 | 1021.2 |
| 20260905153515 | 33 | 284 | 9.7 | 22.5 | 0.00 | 0.00 | 0.00 | 23 | 1021.2 |
| 20260905152555 | 34 | 282 | 9.7 | 17.7 | 0.00 | 0.00 | 0.00 | 23 | 1021.2 |
| 20260905151515 | 35 | 302 | 6.4 | 19.3 | 0.00 | 0.00 | 0.00 | 23 | 1021.2 |
| 20260905150516 | 35 | 307 | 6.4 | 12.9 | 0.00 | 0.00 | 0.00 | 22 | 1021.1 |
| 20260905145555 | 35 | 289 | 4.8 | 16.1 | 0.00 | 0.00 | 0.00 | 22 | 1021.0 |
| 20260905144515 | 35 | 333 | 8.0 | 16.1 | 0.00 | 0.00 | 0.00 | 22 | 1021.1 |
| 20260905143515 | 35 | 290 | 6.4 | 16.1 | 0.00 | 0.00 | 0.00 | 22 | 1021.1 |
| 20260905142555 | 35 | 283 | 8.0 | 17.7 | 0.00 | 0.00 | 0.00 | 22 | 1021.2 |
| 20260905141515 | 35 | 306 | 8.0 | 17.7 | 0.00 | 0.00 | 0.00 | 22 | 1021.3 |
| 20260905140515 | 35 | 301 | 9.7 | 20.9 | 0.00 | 0.00 | 0.00 | 22 | 1021.4 |
| 20260905135515 | 35 | 307 | 8.0 | 19.3 | 0.00 | 0.00 | 0.00 | 22 | 1021.5 |
| 20260905134515 | 35 | 286 | 11.3 | 24.1 | 0.00 | 0.00 | 0.00 | 21 | 1021.6 |
| 20260905133515 | 35 | 283 | 12.9 | 22.5 | 0.00 | 0.00 | 0.00 | 21 | 1021.7 |
| 20260905132515 | 35 | 292 | 11.3 | 24.1 | 0.00 | 0.00 | 0.00 | 21 | 1021.7 |
| 20260905131515 | 35 | 287 | 8.0 | 22.5 | 0.00 | 0.00 | 0.00 | 25 | 1022.0 |
| 20260905130515 | 35 | 306 | 8.0 | 17.7 | 0.00 | 0.00 | 0.00 | 24 | 1022.0 |
| 20260905125555 | 35 | 289 | 8.0 | 17.7 | 0.00 | 0.00 | 0.00 | 24 | 1022.0 |
| 20260905124515 | 35 | 271 | 8.0 | 16.1 | 0.00 | 0.00 | 0.00 | 23 | 1022.1 |
| 20260905123515 | 36 | 270 | 8.0 | 17.7 | 0.00 | 0.00 | 0.00 | 21 | 1022.2 |
| 20260905122515 | 36 | 270 | 9.7 | 16.1 | 0.00 | 0.00 | 0.00 | 21 | 1022.3 |
| 20260905121515 | 35 | 266 | 4.8 | 11.3 | 0.00 | 0.00 | 0.00 | 25 | 1022.3 |
| 20260905120515 | 35 | 270 | 6.4 | 12.9 | 0.00 | 0.00 | 0.00 | 25 | 1022.5 |
| 20260905115516 | 35 | 269 | 8.0 | 16.1 | 0.00 | 0.00 | 0.00 | 25 | 1022.5 |
| 20260905114515 | 35 | 278 | 3.2 | 6.4 | 0.00 | 0.00 | 0.00 | 27 | 1022.7 |
| 20260905113515 | 34 | 283 | 1.6 | 6.4 | 0.00 | 0.00 | 0.00 | 28 | 1022.7 |
| 20260905112555 | 34 | 276 | 3.2 | 8.0 | 0.00 | 0.00 | 0.00 | 28 | 1022.8 |
| 20260905111515 | 34 | 269 | 4.8 | 9.7 | 0.00 | 0.00 | 0.00 | 27 | 1022.9 |
| 20260905110515 | 34 | 276 | 0.0 | 6.4 | 0.00 | 0.00 | 0.00 | 27 | 1022.9 |
| 20260905105515 | 33 | 273 | 1.6 | 4.8 | 0.00 | 0.00 | 0.00 | 28 | 1023.0 |
| 20260905104615 | 33 | 276 | 1.6 | 6.4 | 0.00 | 0.00 | 0.00 | 29 | 1023.1 |
| 20260905103555 | 32 | 276 | 0.0 | 3.2 | 0.00 | 0.00 | 0.00 | 30 | 1023.0 |
| 20260905102516 | 32 | 278 | 3.2 | 8.0 | 0.00 | 0.00 | 0.00 | 30 | 1023.1 |
| 20260905101555 | 32 | 334 | 1.6 | 4.8 | 0.00 | 0.00 | 0.00 | 31 | 1023.3 |
| 20260905100515 | 31 | 306 | 1.6 | 3.2 | 0.00 | 0.00 | 0.00 | 32 | 1023.3 |
| 20260905095555 | 31 | 274 | 1.6 | 4.8 | 0.00 | 0.00 | 0.00 | 31 | 1023.3 |
| 20260905094515 | 31 | 181 | 1.6 | 4.8 | 0.00 | 0.00 | 0.00 | 32 | 1023.3 |
| 20260905093555 | 30 | 30 | 1.6 | 4.8 | 0.00 | 0.00 | 0.00 | 33 | 1023.2 |
| 20260905092515 | 30 | 43 | 1.6 | 6.4 | 0.00 | 0.00 | 0.00 | 33 | 1023.0 |
| 20260905091515 | 28 | 40 | 3.2 | 8.0 | 0.00 | 0.00 | 0.00 | 34 | 1022.8 |
| 20260905090555 | 28 | 47 | 6.4 | 12.9 | 0.00 | 0.00 | 0.00 | 34 | 1022.6 |
| 20260905085515 | 27 | 56 | 4.8 | 11.3 | 0.00 | 0.00 | 0.00 | 34 | 1022.4 |
| 20260905084515 | 27 | 54 | 4.8 | 9.7 | 0.00 | 0.00 | 0.00 | 34 | 1022.4 |
| 20260905083515 | 27 | 49 | 4.8 | 11.3 | 0.00 | 0.00 | 0.00 | 35 | 1022.4 |
| 20260905082515 | 27 | 66 | 4.8 | 8.0 | 0.00 | 0.00 | 0.00 | 35 | 1022.5 |
| 20260905081516 | 27 | 56 | 4.8 | 9.7 | 0.00 | 0.00 | 0.00 | 35 | 1022.5 |
| 20260905080516 | 27 | 57 | 1.6 | 6.4 | 0.00 | 0.00 | 0.00 | 37 | 1022.5 |
| 20260905075515 | 26 | 56 | 1.6 | 3.2 | 0.00 | 0.00 | 0.00 | 37 | 1022.5 |
| 20260905074516 | 26 | 0.0 | 1.6 | 0.00 | 0.00 | 0.00 | 38 | 1022.6 | |
| 20260905073516 | 25 | 46 | 1.6 | 8.0 | 0.00 | 0.00 | 0.00 | 38 | 1022.3 |